Home > Weather > Swindon > Past weeks

Flag for United Kingdom Weather for the Past 2 Weeks in Swindon, England, United Kingdom

Now
34 °F

Clear.


Feels Like: 34 °F
Forecast: 42 / 55 °F
Wind: 1 mph from Southwest

Location: Brize Norton

Current Time: May 1, 2016 at 4:01:12 AM

Latest Report: May 1, 2016 at 2:50 AM


Visibility: 10 mi

Pressure: 30.33 "Hg

Humidity: 93%

Dew Point: 32 °F

Location of SwindonLocation

Historic Weather in Swindon — Graph

°F

Swindon Temperature Yesterday

Maximum temperature yesterday: 54 °F (at 2:50 PM)
Minimum temperature yesterday: 32 °F (at 5:50 AM)
Average temperature yesterday: 43 °F

High & Low Weather Summary for the Past Weeks

 TemperatureHumidityPressure
High59 °F (Apr 20, 2:50 PM)100% (Apr 28, 12:50 AM)30.45 "Hg (Apr 28, 12:50 AM)
Low30 °F (Apr 28, 4:50 AM)35% (Apr 17, 2:50 PM)29.50 "Hg (Apr 16, 3:50 AM)
Average44 °F69%30.04 "Hg
* Reported Apr 16 2:50 AM — May 1 2:50 AM, Swindon, Weather by CustomWeather, © 2016

Note: Actual official high and low records may vary slightly from our data, if they occured in-between our weather recording intervals... More about our weather records

Advertising

Swindon Weather History for the Previous 24 Hours

Scroll right to see more
 ConditionsComfort  
Time TempWeatherWind HumidityBarometerVisibility
2:50 AM
Sun, May 1
34 °FClear.1 mph93%30.33 "Hg10 mi
1:50 AM36 °FClear.No wind87%30.30 "Hg10 mi
11:50 PM
Sat, Apr 30
37 °FClear.No wind87%30.30 "Hg10 mi
10:50 PM41 °FPassing clouds.2 mph87%30.30 "HgN/A
9:50 PM43 °FPassing clouds.3 mph76%30.30 "HgN/A
8:50 PM45 °FScattered clouds.5 mph76%30.30 "HgN/A
7:50 PM46 °FScattered showers. Scattered clouds.7 mph66%30.27 "HgN/A
6:50 PM48 °FPassing clouds.7 mph58%30.24 "HgN/A
5:50 PM50 °FScattered clouds.6 mph54%30.21 "HgN/A
4:50 PM50 °FScattered clouds.9 mph47%30.21 "HgN/A
3:50 PM50 °FScattered clouds.13 mph54%30.18 "HgN/A
2:50 PM54 °FPassing clouds.13 mph38%30.18 "HgN/A
1:50 PM52 °FScattered clouds.7 mph38%30.15 "HgN/A
12:50 PM52 °FScattered clouds.7 mph44%30.15 "HgN/A
11:50 AM52 °FScattered clouds.9 mph44%30.15 "HgN/A
10:50 AM48 °FBroken clouds.7 mph54%30.15 "HgN/A
9:50 AM48 °FPartly sunny.9 mph58%30.12 "HgN/A
8:50 AM46 °FPartly sunny.6 mph57%30.12 "HgN/A
7:50 AM39 °FSunny.5 mph81%30.12 "Hg10 mi
6:50 AM36 °FSunny.3 mph81%30.09 "Hg10 mi
5:50 AM32 °FClear.3 mph93%30.07 "Hg10 mi
4:50 AM34 °FClear.3 mph87%30.07 "Hg10 mi
Weather by CustomWeather, © 2016

See weather overviewHow to use our weather pages